Weather History for Tiaret, Algeria

Change the Weather History Date:

Tuesday, February 26, 2013

  Actual Average Record
Temperature  
Mean Temperature 34 °F -  
Max Temperature 45 °F - - ()
Min Temperature 23 °F - - ()
Degree Days  
Heating Degree Days 31    
Moisture  
Dew Point 26 °F    
Average Humidity 72    
Maximum Humidity 93    
Minimum Humidity 40    
Precipitation  
Precipitation 0.00 in - - ()
Sea Level Pressure  
Sea Level Pressure 30.05 in    
Wind  
Wind Speed 6 mph ()    
Max Wind Speed 14 mph    
Max Gust Speed -    
Visibility 7.4 miles    
Events      
T = Trace of Precipitation, MM = Missing Value Source: Averaged Metar Reports

Daily Weather History Graph

Daily Weather History Graph

Search for Another Location

Airport:

Trip Planner

Search our weather history database for the weather conditions in past years. The results will help you decide how hot, cold, wet, or windy it might be!

Date:

Astronomy

Feb. 26, 2013 Rise Set
Actual Time 7:27 AM CET 6:46 PM CET
Civil Twilight 7:02 AM CET 7:12 PM CET
Nautical Twilight 6:32 AM CET 7:42 PM CET
Astronomical Twilight 6:03 AM CET 8:11 PM CET
Moon 7:43 PM CET (2/26) 7:25 AM CET (2/26)
Length of Visible Light 12h 10m
Length of Day
11h 19m
Full, 100% of the Moon is Illuminated
Feb 26
Full
Mar 4
Last Quarter
Mar 11
New
Mar 19
First Quarter
Mar 27
Full

Hourly Weather History & Observations

Time (CET) Temp. Windchill Dew Point Humidity Pressure Visibility Wind Dir Wind Speed Gust Speed Precip Events Conditions
12:00 AM 32.0 °F 27.5 °F 24.8 °F 75% 30.06 in 6.2 mi SSW 4.6 mph - N/A   Scattered Clouds
1:00 AM 29 °F - 26 °F 81%  in 6 mi West 4.6 mph - -  
1:00 AM 28.4 °F 23.3 °F 24.8 °F 86% 30.06 in - West 4.6 mph - N/A   Clear
2:00 AM 35.6 °F 31.7 °F 23.0 °F 60% 30.06 in - WNW 4.6 mph - N/A   Clear
3:00 AM 32.0 °F 27.5 °F 26.6 °F 80% 30.06 in - WNW 4.6 mph - N/A   Clear
4:00 AM 24 °F - 21 °F 81%  in 6 mi SSW 6.9 mph - -  
4:00 AM 24.8 °F 16.9 °F 21.2 °F 86% 30.04 in - SSW 6.9 mph - N/A   Clear
5:00 AM 24.8 °F 14.0 °F 19.4 °F 80% 30.04 in - WNW 11.5 mph - N/A   Clear
6:00 AM 24.8 °F - 19.4 °F 80% 30.04 in - Calm Calm - N/A   Clear
7:00 AM 25 °F - 21 °F 78%  in 6 mi SSW 4.6 mph - -   Scattered Clouds
7:00 AM 24.8 °F 19.1 °F 21.2 °F 86% 30.04 in 6.2 mi West 4.6 mph - N/A   Partly Cloudy
8:00 AM 26.6 °F 19.1 °F 23.0 °F 86% 30.04 in - SSW 6.9 mph - N/A   Clear
9:00 AM 32.0 °F 23.0 °F 24.8 °F 75% 30.04 in - SSW 11.5 mph - N/A   Clear
10:00 AM 36 °F - 28 °F 65%  in 12 mi SW 13.8 mph - -   Scattered Clouds
10:00 AM 35.6 °F 26.6 °F 28.4 °F 75% 30.06 in - SW 13.8 mph - N/A   Clear
11:00 AM 41.0 °F 33.5 °F 28.4 °F 61% 30.06 in 6.2 mi WSW 13.8 mph - N/A   Partly Cloudy
12:00 PM 37.4 °F 29.8 °F 30.2 °F 75% 30.06 in 6.2 mi WSW 11.5 mph - N/A   Scattered Clouds
1:00 PM 42 °F - 26 °F 40%  in 12 mi West 11.5 mph - -   Partly Cloudy
1:00 PM 42.8 °F 36.6 °F 26.6 °F 53% 30.06 in 6.2 mi West 11.5 mph - N/A   Scattered Clouds
2:00 PM 41.0 °F 34.3 °F 24.8 °F 53% 30.04 in 6.2 mi West 11.5 mph - N/A   Mostly Cloudy
3:00 PM 42.8 °F 37.5 °F 28.4 °F 57% 30.04 in 6.2 mi WNW 9.2 mph - N/A   Mostly Cloudy
4:00 PM 44 °F - 28 °F 42%  in 12 mi NW 11.5 mph - -   Mostly Cloudy
4:00 PM 44.6 °F 38.8 °F 28.4 °F 53% 30.01 in 6.2 mi NW 11.5 mph - N/A   Mostly Cloudy
5:00 PM 42.8 °F 37.5 °F 30.2 °F 61% 30.01 in 6.2 mi NW 9.2 mph - N/A   Scattered Clouds
6:00 PM 42.8 °F 36.6 °F 30.2 °F 61% 30.04 in 6.2 mi NNW 11.5 mph - N/A   Scattered Clouds
7:00 PM 39 °F - 31 °F 62%  in 9 mi NNW 5.8 mph - -   Scattered Clouds
7:00 PM 39.2 °F 35.0 °F 30.2 °F 70% 30.04 in 6.2 mi NNW 5.8 mph - N/A   Partly Cloudy
8:00 PM 35.6 °F - 30.2 °F 81% 30.04 in - Calm Calm - N/A   Clear
9:00 PM 33.8 °F - 28.4 °F 81% 30.04 in - Calm Calm - N/A   Clear
10:00 PM 30 °F - 28 °F 88%  in 9 mi Calm Calm - -  
10:00 PM 30.2 °F - 28.4 °F 93% 30.06 in - Calm Calm - N/A   Clear
11:00 PM 30.2 °F - 28.4 °F 93% 30.04 in - Calm Calm - N/A   Clear